| time (UTC) | temp C | wind direction | speed KPH | gust KPH | rain 1hr cm | rain 24hr cm | rain mn cm | humidity % | barometer mb |
| 20260509141427 | 18 | 354 | 4.8 | 6.4 | 0.00 | 0.03 | 0.03 | 84 | 1011.9 |
| 20260509140924 | 18 | 10 | 1.6 | 3.2 | 0.00 | 0.03 | 0.03 | 84 | 1011.7 |
| 20260509140420 | 18 | 350 | 4.8 | 4.8 | 0.00 | 0.03 | 0.03 | 84 | 1011.9 |
| 20260509135918 | 18 | 9 | 4.8 | 4.8 | 0.00 | 0.03 | 0.03 | 84 | 1011.8 |
| 20260509135415 | 18 | 6 | 1.6 | 1.6 | 0.00 | 0.03 | 0.03 | 86 | 1011.6 |
| 20260509134913 | 17 | 248 | 1.6 | 3.2 | 0.00 | 0.03 | 0.03 | 86 | 1011.6 |
| 20260509134410 | 17 | 336 | 0.0 | 1.6 | 0.00 | 0.03 | 0.03 | 89 | 1011.5 |
| 20260509133907 | 17 | 0 | 1.6 | 1.6 | 0.00 | 0.03 | 0.03 | 90 | 1011.6 |
| 20260509133403 | 17 | 21 | 0.0 | 0.0 | 0.00 | 0.03 | 0.03 | 92 | 1011.7 |
| 20260509132902 | 16 | 356 | 0.0 | 1.6 | 0.00 | 0.03 | 0.03 | 94 | 1011.8 |
| 20260509132400 | 16 | 230 | 1.6 | 1.6 | 0.00 | 0.03 | 0.03 | 95 | 1011.7 |
| 20260509131857 | 16 | 352 | 1.6 | 3.2 | 0.00 | 0.03 | 0.03 | 96 | 1011.7 |
| 20260509131354 | 15 | 14 | 0.0 | 1.6 | 0.00 | 0.03 | 0.03 | 97 | 1011.7 |
| 20260509130850 | 16 | 322 | 3.2 | 3.2 | 0.00 | 0.03 | 0.03 | 97 | 1011.6 |
| 20260509130345 | 15 | 18 | 0.0 | 0.0 | 0.00 | 0.03 | 0.03 | 97 | 1011.5 |
| 20260509125843 | 15 | 317 | 0.0 | 0.0 | 0.00 | 0.03 | 0.03 | 98 | 1011.7 |
| 20260509125339 | 15 | 53 | 1.6 | 1.6 | 0.00 | 0.03 | 0.03 | 98 | 1011.8 |
| 20260509124835 | 15 | 336 | 1.6 | 3.2 | 0.00 | 0.03 | 0.03 | 98 | 1011.6 |
| 20260509124332 | 15 | 30 | 3.2 | 3.2 | 0.00 | 0.03 | 0.03 | 98 | 1011.7 |
| 20260509123830 | 14 | 44 | 1.6 | 1.6 | 0.00 | 0.03 | 0.03 | 98 | 1011.4 |
| 20260509123327 | 14 | 0 | 1.6 | 3.2 | 0.00 | 0.03 | 0.03 | 98 | 1011.5 |
| 20260509122823 | 13 | 10 | 0.0 | 1.6 | 0.00 | 0.03 | 0.03 | 98 | 1011.6 |
| 20260509122320 | 13 | 348 | 0.0 | 0.0 | 0.00 | 0.03 | 0.03 | 98 | 1011.2 |
| 20260509121817 | 13 | 27 | 0.0 | 0.0 | 0.00 | 0.03 | 0.03 | 98 | 1011.5 |
| 20260509121314 | 13 | 7 | 0.0 | 0.0 | 0.00 | 0.03 | 0.03 | 98 | 1011.3 |
| 20260509120813 | 13 | 6 | 0.0 | 0.0 | 0.00 | 0.03 | 0.03 | 98 | 1011.3 |
| 20260509120310 | 13 | 6 | 0.0 | 0.0 | 0.00 | 0.03 | 0.03 | 98 | 1011.3 |
| 20260509115808 | 13 | 39 | 0.0 | 0.0 | 0.00 | 0.03 | 0.03 | 98 | 1011.0 |
| 20260509115307 | 13 | 8 | 0.0 | 0.0 | 0.00 | 0.03 | 0.03 | 98 | 1011.0 |
| 20260509114803 | 13 | 14 | 0.0 | 0.0 | 0.00 | 0.03 | 0.03 | 98 | 1011.1 |
| 20260509114301 | 13 | 2 | 0.0 | 0.0 | 0.00 | 0.03 | 0.03 | 98 | 1010.9 |
| 20260509113800 | 13 | 12 | 0.0 | 0.0 | 0.00 | 0.03 | 0.03 | 98 | 1011.1 |
| 20260509113256 | 13 | 357 | 0.0 | 0.0 | 0.00 | 0.03 | 0.03 | 98 | 1011.0 |
| 20260509112753 | 13 | 8 | 0.0 | 0.0 | 0.00 | 0.03 | 0.03 | 98 | 1010.9 |
| 20260509112250 | 12 | 356 | 0.0 | 0.0 | 0.00 | 0.03 | 0.03 | 98 | 1010.9 |
| 20260509111747 | 12 | 12 | 0.0 | 0.0 | 0.00 | 0.03 | 0.03 | 97 | 1011.2 |
| 20260509111244 | 12 | 21 | 0.0 | 0.0 | 0.00 | 0.03 | 0.03 | 97 | 1011.0 |
| 20260509110741 | 13 | 14 | 0.0 | 0.0 | 0.00 | 0.03 | 0.03 | 97 | 1010.9 |
| 20260509110238 | 13 | 335 | 1.6 | 1.6 | 0.00 | 0.03 | 0.03 | 98 | 1011.0 |
| 20260509105736 | 13 | 4 | 0.0 | 0.0 | 0.00 | 0.03 | 0.03 | 97 | 1010.6 |
| 20260509105233 | 13 | 8 | 0.0 | 0.0 | 0.00 | 0.03 | 0.03 | 97 | 1010.9 |
| 20260509104730 | 13 | 7 | 0.0 | 0.0 | 0.00 | 0.03 | 0.03 | 97 | 1010.7 |
| 20260509104227 | 13 | 18 | 0.0 | 0.0 | 0.00 | 0.03 | 0.03 | 97 | 1010.9 |
| 20260509103725 | 13 | 3 | 0.0 | 0.0 | 0.00 | 0.03 | 0.03 | 97 | 1010.7 |
| 20260509103222 | 13 | 359 | 0.0 | 0.0 | 0.00 | 0.03 | 0.03 | 97 | 1010.7 |
| 20260509102720 | 13 | 254 | 1.6 | 3.2 | 0.00 | 0.03 | 0.03 | 97 | 1010.9 |
| 20260509102217 | 13 | 1 | 1.6 | 3.2 | 0.00 | 0.03 | 0.03 | 97 | 1011.0 |
| 20260509101714 | 13 | 344 | 1.6 | 1.6 | 0.00 | 0.03 | 0.03 | 97 | 1010.7 |
| 20260509101210 | 13 | 242 | 4.8 | 4.8 | 0.18 | 0.03 | 0.03 | 97 | 1010.9 |
| 20260509100708 | 13 | 36 | 3.2 | 3.2 | 0.18 | 0.03 | 0.03 | 97 | 1010.6 |
| 20260509100204 | 13 | 33 | 1.6 | 1.6 | 0.00 | 0.00 | 0.00 | 97 | 1011.0 |
| 20260509095701 | 13 | 70 | 4.8 | 6.4 | 0.00 | 0.00 | 0.00 | 97 | 1010.6 |
| 20260509095158 | 13 | 147 | 3.2 | 4.8 | 0.00 | 0.00 | 0.00 | 97 | 1010.9 |
| 20260509094655 | 13 | 24 | 1.6 | 1.6 | 0.00 | 0.00 | 0.00 | 97 | 1011.0 |
| 20260509094152 | 13 | 64 | 1.6 | 1.6 | 0.00 | 0.00 | 0.00 | 97 | 1010.7 |
| 20260509093650 | 13 | 237 | 3.2 | 3.2 | 0.00 | 0.00 | 0.00 | 97 | 1011.0 |
| 20260509093147 | 13 | 349 | 0.0 | 0.0 | 0.00 | 0.00 | 0.00 | 96 | 1011.1 |
| 20260509092645 | 13 | 331 | 3.2 | 3.2 | 0.00 | 0.00 | 0.00 | 97 | 1011.1 |
| 20260509092143 | 13 | 199 | 1.6 | 3.2 | 0.00 | 0.00 | 0.00 | 96 | 1011.2 |
| 20260509091641 | 13 | 206 | 3.2 | 3.2 | 0.00 | 0.00 | 0.00 | 96 | 1011.2 |
| 20260509091137 | 13 | 28 | 1.6 | 3.2 | 0.00 | 0.00 | 0.00 | 96 | 1011.2 |
| 20260509090635 | 13 | 3 | 1.6 | 3.2 | 0.00 | 0.00 | 0.00 | 96 | 1011.3 |
| 20260509090132 | 13 | 10 | 0.0 | 0.0 | 0.00 | 0.00 | 0.00 | 96 | 1011.1 |
| 20260509085629 | 13 | 359 | 1.6 | 1.6 | 0.00 | 0.00 | 0.00 | 96 | 1011.2 |
| 20260509085125 | 13 | 224 | 3.2 | 3.2 | 0.00 | 0.00 | 0.00 | 96 | 1011.2 |
| 20260509084623 | 13 | 340 | 1.6 | 1.6 | 0.00 | 0.00 | 0.00 | 96 | 1011.2 |
| 20260509084119 | 13 | 32 | 1.6 | 1.6 | 0.00 | 0.00 | 0.00 | 96 | 1011.0 |
| 20260509083617 | 13 | 216 | 6.4 | 6.4 | 0.00 | 0.00 | 0.00 | 96 | 1011.0 |
| 20260509083113 | 13 | 328 | 0.0 | 0.0 | 0.00 | 0.00 | 0.00 | 96 | 1010.9 |
| 20260509082611 | 13 | 314 | 0.0 | 0.0 | 0.00 | 0.00 | 0.00 | 96 | 1010.9 |
| 20260509082107 | 13 | 310 | 0.0 | 0.0 | 0.00 | 0.00 | 0.00 | 95 | 1010.6 |
| 20260509081605 | 13 | 27 | 0.0 | 0.0 | 0.00 | 0.00 | 0.00 | 95 | 1010.5 |
| 20260509081101 | 13 | 28 | 0.0 | 0.0 | 0.00 | 0.00 | 0.00 | 95 | 1010.6 |
| 20260509080600 | 13 | 46 | 0.0 | 1.6 | 0.00 | 0.00 | 0.00 | 95 | 1010.6 |
| 20260509080057 | 13 | 33 | 0.0 | 0.0 | 0.00 | 0.00 | 0.00 | 95 | 1010.4 |
| 20260509075555 | 13 | 18 | 0.0 | 0.0 | 0.00 | 0.00 | 0.00 | 95 | 1010.5 |
| 20260509075053 | 13 | 26 | 0.0 | 0.0 | 0.00 | 0.00 | 0.00 | 95 | 1010.9 |
| 20260509074549 | 13 | 29 | 0.0 | 0.0 | 0.00 | 0.00 | 0.00 | 94 | 1010.6 |
| 20260509074046 | 13 | 40 | 0.0 | 0.0 | 0.00 | 0.00 | 0.00 | 94 | 1010.7 |
| 20260509073542 | 13 | 354 | 0.0 | 0.0 | 0.00 | 0.00 | 0.00 | 94 | 1011.0 |
| 20260509073039 | 14 | 2 | 0.0 | 0.0 | 0.00 | 0.00 | 0.00 | 94 | 1011.1 |
| 20260509072535 | 14 | 12 | 0.0 | 1.6 | 0.00 | 0.00 | 0.00 | 94 | 1011.3 |
| 20260509072032 | 14 | 348 | 0.0 | 0.0 | 0.00 | 0.00 | 0.00 | 94 | 1011.0 |
| 20260509071529 | 14 | 1 | 0.0 | 0.0 | 0.00 | 0.00 | 0.00 | 93 | 1011.2 |
| 20260509071026 | 14 | 232 | 4.8 | 4.8 | 0.00 | 0.00 | 0.00 | 93 | 1011.0 |
| 20260509070524 | 14 | 354 | 1.6 | 1.6 | 0.00 | 0.00 | 0.00 | 93 | 1010.9 |
| 20260509070020 | 14 | 248 | 3.2 | 3.2 | 0.00 | 0.00 | 0.00 | 93 | 1011.2 |
| 20260509065515 | 14 | 212 | 6.4 | 6.4 | 0.00 | 0.00 | 0.00 | 93 | 1011.1 |
| 20260509065011 | 14 | 316 | 1.6 | 1.6 | 0.00 | 0.00 | 0.00 | 93 | 1011.2 |
| 20260509064509 | 14 | 216 | 3.2 | 6.4 | 0.00 | 0.00 | 0.00 | 93 | 1011.1 |
| 20260509064007 | 14 | 171 | 3.2 | 3.2 | 0.00 | 0.00 | 0.00 | 93 | 1011.0 |
| 20260509063502 | 14 | 250 | 3.2 | 4.8 | 0.00 | 0.00 | 0.00 | 94 | 1011.2 |
| 20260509063000 | 14 | 5 | 0.0 | 1.6 | 0.00 | 0.00 | 0.00 | 94 | 1011.1 |
| 20260509062457 | 14 | 118 | 1.6 | 1.6 | 0.00 | 0.00 | 0.00 | 94 | 1011.1 |
| 20260509061955 | 14 | 248 | 1.6 | 1.6 | 0.00 | 0.00 | 0.00 | 95 | 1011.1 |
| 20260509061451 | 14 | 292 | 1.6 | 3.2 | 0.00 | 0.00 | 0.00 | 95 | 1011.0 |
| 20260509060949 | 14 | 100 | 3.2 | 3.2 | 0.00 | 0.00 | 0.00 | 95 | 1011.0 |
| 20260509060446 | 14 | 61 | 3.2 | 3.2 | 0.00 | 0.00 | 0.00 | 96 | 1011.0 |
| 20260509055942 | 13 | 168 | 1.6 | 1.6 | 0.00 | 0.00 | 0.00 | 96 | 1011.1 |
| 20260509055437 | 13 | 107 | 1.6 | 1.6 | 0.00 | 0.00 | 0.00 | 96 | 1011.1 |
| 20260509054933 | 13 | 10 | 0.0 | 0.0 | 0.00 | 0.00 | 0.00 | 95 | 1011.1 |
| 20260509054430 | 13 | 29 | 0.0 | 0.0 | 0.00 | 0.00 | 0.00 | 95 | 1011.1 |
| 20260509053929 | 13 | 33 | 0.0 | 0.0 | 0.00 | 0.00 | 0.00 | 95 | 1011.2 |
| 20260509053426 | 13 | 19 | 0.0 | 0.0 | 0.00 | 0.00 | 0.00 | 95 | 1011.1 |
| 20260509052923 | 13 | 26 | 0.0 | 0.0 | 0.00 | 0.00 | 0.00 | 94 | 1011.1 |
| 20260509052421 | 13 | 4 | 0.0 | 0.0 | 0.00 | 0.00 | 0.00 | 94 | 1011.4 |
| 20260509051919 | 13 | 14 | 0.0 | 0.0 | 0.00 | 0.00 | 0.00 | 94 | 1011.5 |
| 20260509051416 | 13 | 8 | 0.0 | 0.0 | 0.00 | 0.00 | 0.00 | 93 | 1011.4 |
| 20260509050913 | 13 | 13 | 0.0 | 0.0 | 0.00 | 0.00 | 0.00 | 93 | 1011.6 |
| 20260509050410 | 13 | 8 | 0.0 | 0.0 | 0.00 | 0.00 | 0.00 | 93 | 1011.6 |
| 20260509045907 | 13 | 15 | 0.0 | 0.0 | 0.00 | 0.00 | 0.00 | 93 | 1011.4 |
| 20260509045403 | 14 | 10 | 0.0 | 0.0 | 0.00 | 0.00 | 0.00 | 93 | 1011.4 |
| 20260509044901 | 14 | 11 | 0.0 | 0.0 | 0.00 | 0.00 | 0.00 | 93 | 1011.5 |
| 20260509044358 | 14 | 8 | 0.0 | 0.0 | 0.00 | 0.00 | 0.00 | 92 | 1011.3 |
| 20260509043855 | 14 | 29 | 0.0 | 0.0 | 0.00 | 0.00 | 0.00 | 92 | 1011.4 |
| 20260509043351 | 14 | 24 | 0.0 | 0.0 | 0.00 | 0.00 | 0.00 | 92 | 1011.5 |
| 20260509042847 | 14 | 83 | 0.0 | 0.0 | 0.00 | 0.00 | 0.00 | 92 | 1011.3 |
| 20260509042343 | 15 | 2 | 0.0 | 0.0 | 0.00 | 0.00 | 0.00 | 92 | 1011.5 |
| 20260509041840 | 15 | 318 | 0.0 | 0.0 | 0.00 | 0.00 | 0.00 | 92 | 1011.4 |
| 20260509041337 | 15 | 19 | 0.0 | 0.0 | 0.00 | 0.00 | 0.00 | 91 | 1011.4 |
| 20260509040835 | 15 | 0 | 0.0 | 0.0 | 0.00 | 0.00 | 0.00 | 91 | 1011.4 |
| 20260509040333 | 15 | 8 | 0.0 | 0.0 | 0.00 | 0.00 | 0.00 | 90 | 1011.5 |
| 20260509035829 | 15 | 0 | 0.0 | 0.0 | 0.00 | 0.00 | 0.00 | 90 | 1011.3 |
| 20260509035327 | 15 | 359 | 0.0 | 0.0 | 0.00 | 0.00 | 0.00 | 90 | 1011.1 |
| 20260509034822 | 15 | 12 | 0.0 | 0.0 | 0.00 | 0.00 | 0.00 | 89 | 1011.1 |
| 20260509034321 | 15 | 34 | 0.0 | 0.0 | 0.00 | 0.00 | 0.00 | 89 | 1010.9 |
| 20260509033817 | 15 | 14 | 0.0 | 0.0 | 0.00 | 0.00 | 0.00 | 88 | 1010.7 |
| 20260509033315 | 15 | 4 | 0.0 | 0.0 | 0.00 | 0.00 | 0.00 | 88 | 1011.0 |
| 20260509032811 | 15 | 4 | 0.0 | 0.0 | 0.00 | 0.00 | 0.00 | 87 | 1011.0 |
| 20260509032308 | 15 | 6 | 0.0 | 0.0 | 0.00 | 0.00 | 0.00 | 86 | 1010.9 |
| 20260509031806 | 16 | 6 | 0.0 | 0.0 | 0.00 | 0.00 | 0.00 | 86 | 1010.9 |
| 20260509031303 | 16 | 6 | 0.0 | 0.0 | 0.00 | 0.00 | 0.00 | 85 | 1010.9 |
| 20260509030801 | 16 | 3 | 0.0 | 0.0 | 0.00 | 0.00 | 0.00 | 85 | 1010.7 |
| 20260509030259 | 16 | 5 | 0.0 | 0.0 | 0.00 | 0.00 | 0.00 | 84 | 1010.6 |
| 20260509025755 | 16 | 7 | 0.0 | 0.0 | 0.00 | 0.00 | 0.00 | 84 | 1010.7 |
| 20260509025250 | 16 | 5 | 0.0 | 0.0 | 0.00 | 0.00 | 0.00 | 83 | 1010.5 |
| 20260509024746 | 16 | 6 | 0.0 | 0.0 | 0.00 | 0.00 | 0.00 | 83 | 1010.5 |
| 20260509024242 | 16 | 9 | 0.0 | 0.0 | 0.00 | 0.00 | 0.00 | 82 | 1010.5 |
| 20260509023740 | 16 | 352 | 0.0 | 0.0 | 0.00 | 0.00 | 0.00 | 81 | 1010.4 |
| 20260509023237 | 17 | 4 | 0.0 | 0.0 | 0.00 | 0.00 | 0.00 | 80 | 1010.3 |
| 20260509022733 | 17 | 354 | 0.0 | 0.0 | 0.00 | 0.00 | 0.00 | 79 | 1010.1 |
| 20260509022231 | 17 | 2 | 0.0 | 0.0 | 0.00 | 0.00 | 0.00 | 78 | 1009.9 |
| 20260509021727 | 17 | 358 | 0.0 | 0.0 | 0.00 | 0.00 | 0.00 | 77 | 1009.8 |
| 20260509021225 | 17 | 19 | 0.0 | 0.0 | 0.00 | 0.00 | 0.00 | 76 | 1009.8 |
| 20260509020723 | 17 | 317 | 3.2 | 3.2 | 0.00 | 0.00 | 0.00 | 76 | 1010.0 |
| 20260509020219 | 17 | 322 | 0.0 | 1.6 | 0.00 | 0.00 | 0.00 | 74 | 1009.7 |
| 20260509015718 | 17 | 350 | 1.6 | 1.6 | 0.00 | 0.00 | 0.00 | 73 | 1009.5 |
| 20260509015216 | 18 | 359 | 4.8 | 6.4 | 0.00 | 0.00 | 0.00 | 72 | 1009.2 |
| 20260509014712 | 18 | 321 | 9.7 | 11.3 | 0.00 | 0.00 | 0.00 | 71 | 1009.0 |
| 20260509014209 | 18 | 345 | 1.6 | 1.6 | 0.00 | 0.00 | 0.00 | 70 | 1008.6 |
| 20260509013705 | 18 | 9 | 1.6 | 1.6 | 0.00 | 0.00 | 0.00 | 69 | 1008.2 |
| 20260509013201 | 18 | 10 | 0.0 | 0.0 | 0.00 | 0.00 | 0.00 | 67 | 1008.3 |
| 20260509012658 | 18 | 6 | 1.6 | 1.6 | 0.00 | 0.00 | 0.00 | 66 | 1008.2 |
| 20260509012154 | 19 | 6 | 0.0 | 0.0 | 0.00 | 0.00 | 0.00 | 65 | 1007.9 |
| 20260509011652 | 19 | 346 | 1.6 | 1.6 | 0.00 | 0.00 | 0.00 | 63 | 1007.7 |
| 20260509011149 | 19 | 230 | 3.2 | 6.4 | 0.00 | 0.00 | 0.00 | 63 | 1007.8 |
| 20260509010647 | 20 | 19 | 0.0 | 0.0 | 0.00 | 0.00 | 0.00 | 63 | 1007.8 |
| 20260509010143 | 20 | 184 | 3.2 | 4.8 | 0.00 | 0.00 | 0.00 | 63 | 1007.6 |
| 20260509005641 | 20 | 202 | 4.8 | 4.8 | 0.00 | 0.00 | 0.00 | 63 | 1007.7 |
| 20260509005137 | 20 | 217 | 6.4 | 9.7 | 0.00 | 0.00 | 0.00 | 63 | 1007.6 |
| 20260509004633 | 20 | 9 | 3.2 | 4.8 | 0.00 | 0.00 | 0.00 | 63 | 1007.3 |
| 20260509004130 | 20 | 304 | 3.2 | 3.2 | 0.00 | 0.00 | 0.00 | 65 | 1007.2 |
| 20260509003629 | 19 | 296 | 1.6 | 1.6 | 0.00 | 0.00 | 0.00 | 66 | 1007.2 |
| 20260509003126 | 19 | 223 | 8.0 | 11.3 | 0.00 | 0.00 | 0.00 | 67 | 1007.3 |
| 20260509002623 | 19 | 200 | 6.4 | 9.7 | 0.00 | 0.00 | 0.00 | 68 | 1007.6 |
| 20260509002120 | 20 | 187 | 9.7 | 12.9 | 0.00 | 0.00 | 0.00 | 67 | 1007.3 |
| 20260509001618 | 20 | 166 | 4.8 | 4.8 | 0.00 | 0.00 | 0.00 | 68 | 1007.8 |
| 20260509001113 | 20 | 209 | 4.8 | 4.8 | 0.00 | 0.00 | 0.00 | 67 | 1008.4 |
| 20260509000612 | 20 | 217 | 8.0 | 11.3 | 0.00 | 0.00 | 0.00 | 67 | 1008.1 |
| 20260509000108 | 20 | 120 | 6.4 | 6.4 | 0.00 | 0.00 | 0.00 | 65 | 1008.2 |
| 20260508235606 | 20 | 239 | 3.2 | 4.8 | 0.00 | 0.00 | 0.00 | 63 | 1008.0 |
| 20260508235102 | 20 | 202 | 4.8 | 6.4 | 0.00 | 0.00 | 0.00 | 62 | 1007.8 |
| 20260508234559 | 20 | 194 | 6.4 | 9.7 | 0.00 | 0.00 | 0.00 | 61 | 1007.3 |
| 20260508234056 | 20 | 182 | 6.4 | 6.4 | 0.00 | 0.00 | 0.00 | 62 | 1007.5 |
| 20260508233555 | 20 | 71 | 3.2 | 4.8 | 0.00 | 0.00 | 0.00 | 63 | 1007.2 |
| 20260508233052 | 20 | 108 | 6.4 | 9.7 | 0.00 | 0.00 | 0.00 | 62 | 1007.1 |
| 20260508232549 | 20 | 176 | 6.4 | 9.7 | 0.00 | 0.00 | 0.00 | 63 | 1007.0 |
| 20260508232046 | 20 | 67 | 3.2 | 4.8 | 0.00 | 0.00 | 0.00 | 63 | 1007.0 |
| 20260508231544 | 20 | 183 | 6.4 | 9.7 | 0.00 | 0.00 | 0.00 | 63 | 1007.0 |
| 20260508231041 | 20 | 222 | 6.4 | 9.7 | 0.00 | 0.00 | 0.00 | 64 | 1007.6 |
| 20260508230537 | 20 | 152 | 6.4 | 6.4 | 0.00 | 0.00 | 0.00 | 64 | 1007.8 |
| 20260508230034 | 20 | 112 | 4.8 | 4.8 | 0.00 | 0.00 | 0.00 | 65 | 1007.9 |
| 20260508225531 | 20 | 168 | 3.2 | 4.8 | 0.00 | 0.00 | 0.00 | 66 | 1007.9 |
| 20260508225028 | 20 | 246 | 6.4 | 6.4 | 0.00 | 0.00 | 0.00 | 64 | 1008.0 |
| 20260508224526 | 20 | 176 | 6.4 | 6.4 | 0.00 | 0.00 | 0.00 | 65 | 1008.2 |
| 20260508224023 | 20 | 179 | 6.4 | 9.7 | 0.00 | 0.00 | 0.00 | 66 | 1008.2 |
| 20260508223521 | 20 | 193 | 4.8 | 6.4 | 0.00 | 0.00 | 0.00 | 65 | 1008.7 |
| 20260508223018 | 20 | 178 | 3.2 | 3.2 | 0.00 | 0.00 | 0.00 | 65 | 1008.9 |
| 20260508222515 | 20 | 255 | 3.2 | 3.2 | 0.00 | 0.00 | 0.00 | 65 | 1009.2 |
| 20260508222012 | 20 | 219 | 3.2 | 4.8 | 0.00 | 0.00 | 0.00 | 64 | 1009.0 |
| 20260508221508 | 20 | 276 | 4.8 | 4.8 | 0.00 | 0.00 | 0.00 | 62 | 1009.1 |
| 20260508221004 | 21 | 264 | 4.8 | 4.8 | 0.00 | 0.00 | 0.00 | 61 | 1009.3 |
| 20260508220500 | 21 | 335 | 3.2 | 4.8 | 0.00 | 0.00 | 0.00 | 61 | 1009.5 |
| 20260508215956 | 21 | 311 | 4.8 | 6.4 | 0.00 | 0.00 | 0.00 | 59 | 1009.4 |
| 20260508215454 | 22 | 98 | 6.4 | 6.4 | 0.00 | 0.00 | 0.00 | 58 | 1009.4 |
| 20260508214950 | 22 | 241 | 3.2 | 3.2 | 0.00 | 0.00 | 0.00 | 56 | 1009.6 |
| 20260508214448 | 22 | 336 | 3.2 | 3.2 | 0.00 | 0.00 | 0.00 | 53 | 1009.3 |
| 20260508213944 | 23 | 356 | 1.6 | 1.6 | 0.00 | 0.00 | 0.00 | 52 | 1009.0 |
| 20260508213442 | 23 | 26 | 0.0 | 0.0 | 0.00 | 0.00 | 0.00 | 51 | 1009.1 |
| 20260508212937 | 23 | 5 | 0.0 | 0.0 | 0.00 | 0.00 | 0.00 | 50 | 1009.0 |
| 20260508212434 | 23 | 6 | 0.0 | 1.6 | 0.00 | 0.00 | 0.00 | 49 | 1009.3 |
| 20260508211930 | 23 | 2 | 3.2 | 3.2 | 0.00 | 0.00 | 0.00 | 47 | 1009.2 |
| 20260508211425 | 23 | 301 | 4.8 | 6.4 | 0.00 | 0.00 | 0.00 | 45 | 1009.2 |
| 20260508210923 | 23 | 281 | 3.2 | 4.8 | 0.00 | 0.00 | 0.00 | 43 | 1009.1 |
| 20260508210419 | 23 | 186 | 8.0 | 11.3 | 0.00 | 0.00 | 0.00 | 43 | 1009.1 |
| 20260508205915 | 23 | 253 | 6.4 | 9.7 | 0.00 | 0.00 | 0.00 | 45 | 1008.9 |
| 20260508205413 | 23 | 200 | 12.9 | 16.1 | 0.00 | 0.00 | 0.00 | 43 | 1008.7 |
| 20260508204909 | 23 | 131 | 6.4 | 6.4 | 0.00 | 0.00 | 0.00 | 44 | 1009.0 |
| 20260508204407 | 24 | 165 | 3.2 | 4.8 | 0.00 | 0.00 | 0.00 | 44 | 1008.9 |
| 20260508203902 | 24 | 258 | 9.7 | 16.1 | 0.00 | 0.00 | 0.00 | 43 | 1009.1 |
| 20260508203358 | 25 | 24 | 3.2 | 4.8 | 0.00 | 0.00 | 0.00 | 42 | 1008.9 |
| 20260508202854 | 25 | 209 | 4.8 | 6.4 | 0.00 | 0.00 | 0.00 | 43 | 1009.1 |
| 20260508202351 | 25 | 213 | 8.0 | 11.3 | 0.00 | 0.00 | 0.00 | 42 | 1009.0 |
| 20260508201849 | 25 | 117 | 4.8 | 6.4 | 0.00 | 0.00 | 0.00 | 42 | 1009.2 |
| 20260508201345 | 25 | 203 | 4.8 | 4.8 | 0.00 | 0.00 | 0.00 | 41 | 1009.4 |
| 20260508200842 | 25 | 215 | 11.3 | 12.9 | 0.00 | 0.00 | 0.00 | 40 | 1009.3 |
| 20260508200339 | 26 | 171 | 9.7 | 12.9 | 0.00 | 0.00 | 0.00 | 38 | 1009.4 |
| 20260508195834 | 25 | 194 | 1.6 | 3.2 | 0.00 | 0.00 | 0.00 | 42 | 1009.2 |
| 20260508195331 | 26 | 194 | 8.0 | 11.3 | 0.00 | 0.00 | 0.00 | 40 | 1009.3 |
| 20260508194827 | 26 | 244 | 6.4 | 6.4 | 0.00 | 0.00 | 0.00 | 40 | 1009.6 |
| 20260508194325 | 26 | 141 | 9.7 | 12.9 | 0.00 | 0.00 | 0.00 | 38 | 1009.6 |
| 20260508193821 | 25 | 202 | 3.2 | 9.7 | 0.00 | 0.00 | 0.00 | 41 | 1009.6 |
| 20260508193319 | 25 | 217 | 9.7 | 16.1 | 0.00 | 0.00 | 0.00 | 40 | 1010.1 |
| 20260508192814 | 25 | 201 | 6.4 | 11.3 | 0.00 | 0.00 | 0.00 | 39 | 1009.7 |
| 20260508192312 | 25 | 210 | 9.7 | 12.9 | 0.00 | 0.00 | 0.00 | 40 | 1009.8 |
| 20260508191809 | 25 | 198 | 14.5 | 16.1 | 0.00 | 0.00 | 0.00 | 39 | 1009.8 |
| 20260508191306 | 25 | 241 | 6.4 | 9.7 | 0.00 | 0.00 | 0.00 | 40 | 1009.8 |
| 20260508190803 | 25 | 190 | 9.7 | 12.9 | 0.00 | 0.00 | 0.00 | 40 | 1010.0 |
| 20260508190259 | 25 | 266 | 8.0 | 12.9 | 0.00 | 0.00 | 0.00 | 41 | 1010.0 |
| 20260508185756 | 25 | 274 | 3.2 | 9.7 | 0.00 | 0.00 | 0.00 | 43 | 1010.1 |
| 20260508185253 | 25 | 213 | 3.2 | 4.8 | 0.00 | 0.00 | 0.00 | 42 | 1010.3 |
| 20260508184750 | 25 | 94 | 6.4 | 11.3 | 0.00 | 0.00 | 0.00 | 43 | 1010.4 |
| 20260508184248 | 25 | 35 | 4.8 | 9.7 | 0.00 | 0.00 | 0.00 | 42 | 1010.3 |
| 20260508183744 | 24 | 312 | 8.0 | 11.3 | 0.00 | 0.00 | 0.00 | 42 | 1010.3 |
| 20260508183241 | 24 | 226 | 8.0 | 11.3 | 0.00 | 0.00 | 0.00 | 43 | 1010.3 |
| 20260508182737 | 25 | 224 | 9.7 | 12.9 | 0.00 | 0.00 | 0.00 | 41 | 1010.4 |
| 20260508182234 | 25 | 195 | 9.7 | 12.9 | 0.00 | 0.00 | 0.00 | 41 | 1010.7 |
| 20260508181729 | 24 | 288 | 6.4 | 11.3 | 0.00 | 0.00 | 0.00 | 44 | 1010.6 |
| 20260508181227 | 24 | 225 | 16.1 | 20.9 | 0.00 | 0.00 | 0.00 | 42 | 1010.9 |
| 20260508180723 | 24 | 172 | 16.1 | 20.9 | 0.00 | 0.00 | 0.00 | 43 | 1011.0 |
| 20260508180220 | 24 | 271 | 9.7 | 14.5 | 0.00 | 0.00 | 0.00 | 44 | 1011.1 |
| 20260508175717 | 25 | 169 | 11.3 | 14.5 | 0.00 | 0.00 | 0.00 | 43 | 1011.0 |
| 20260508175213 | 24 | 204 | 11.3 | 12.9 | 0.00 | 0.00 | 0.00 | 43 | 1011.0 |
| 20260508174712 | 23 | 359 | 4.8 | 6.4 | 0.00 | 0.00 | 0.00 | 44 | 1011.0 |
| 20260508174208 | 23 | 212 | 6.4 | 9.7 | 0.00 | 0.00 | 0.00 | 44 | 1011.0 |
| 20260508173704 | 23 | 207 | 9.7 | 14.5 | 0.00 | 0.00 | 0.00 | 45 | 1010.9 |
| 20260508173200 | 23 | 181 | 12.9 | 14.5 | 0.00 | 0.00 | 0.00 | 44 | 1011.2 |
| 20260508172658 | 23 | 197 | 9.7 | 11.3 | 0.00 | 0.00 | 0.00 | 45 | 1011.3 |
| 20260508172155 | 23 | 204 | 8.0 | 9.7 | 0.00 | 0.00 | 0.00 | 46 | 1011.2 |
| 20260508171651 | 22 | 102 | 8.0 | 9.7 | 0.00 | 0.00 | 0.00 | 48 | 1011.3 |
| 20260508171147 | 23 | 208 | 16.1 | 17.7 | 0.00 | 0.00 | 0.00 | 46 | 1011.4 |
| 20260508170644 | 22 | 30 | 6.4 | 11.3 | 0.00 | 0.00 | 0.00 | 49 | 1011.7 |
| 20260508170142 | 22 | 167 | 3.2 | 6.4 | 0.00 | 0.00 | 0.00 | 50 | 1011.6 |
| 20260508165639 | 22 | 179 | 12.9 | 17.7 | 0.00 | 0.00 | 0.00 | 49 | 1011.9 |
| 20260508165136 | 22 | 193 | 11.3 | 14.5 | 0.00 | 0.00 | 0.00 | 50 | 1011.9 |
| 20260508164632 | 22 | 358 | 3.2 | 6.4 | 0.00 | 0.00 | 0.00 | 51 | 1012.0 |
| 20260508164129 | 22 | 219 | 8.0 | 16.1 | 0.00 | 0.00 | 0.00 | 52 | 1012.1 |
| 20260508163627 | 22 | 101 | 4.8 | 6.4 | 0.00 | 0.00 | 0.00 | 51 | 1012.1 |
| 20260508163124 | 21 | 196 | 6.4 | 6.4 | 0.00 | 0.00 | 0.00 | 54 | 1012.1 |
| 20260508162620 | 21 | 223 | 9.7 | 11.3 | 0.00 | 0.00 | 0.00 | 52 | 1012.3 |
| 20260508162118 | 21 | 146 | 11.3 | 14.5 | 0.00 | 0.00 | 0.00 | 54 | 1012.3 |
| 20260508161614 | 21 | 189 | 9.7 | 14.5 | 0.00 | 0.00 | 0.00 | 55 | 1012.7 |
| 20260508161112 | 21 | 181 | 16.1 | 22.5 | 0.00 | 0.00 | 0.00 | 54 | 1012.6 |
| 20260508160610 | 21 | 221 | 12.9 | 24.1 | 0.00 | 0.00 | 0.00 | 55 | 1012.5 |
| 20260508160107 | 20 | 174 | 12.9 | 25.7 | 0.00 | 0.00 | 0.00 | 56 | 1012.7 |
| 20260508155604 | 20 | 208 | 8.0 | 12.9 | 0.00 | 0.00 | 0.00 | 57 | 1012.8 |
| 20260508155101 | 20 | 210 | 9.7 | 12.9 | 0.00 | 0.00 | 0.00 | 57 | 1012.8 |
| 20260508154558 | 20 | 285 | 8.0 | 11.3 | 0.00 | 0.00 | 0.00 | 58 | 1013.1 |
| 20260508154055 | 20 | 203 | 4.8 | 6.4 | 0.00 | 0.00 | 0.00 | 60 | 1013.1 |
| 20260508153551 | 20 | 136 | 8.0 | 11.3 | 0.00 | 0.00 | 0.00 | 59 | 1013.1 |
| 20260508153047 | 19 | 113 | 9.7 | 12.9 | 0.00 | 0.00 | 0.00 | 61 | 1013.1 |
| 20260508152545 | 20 | 194 | 14.5 | 17.7 | 0.00 | 0.00 | 0.00 | 59 | 1013.2 |
| 20260508152040 | 19 | 184 | 4.8 | 6.4 | 0.00 | 0.00 | 0.00 | 61 | 1013.3 |
| 20260508151537 | 19 | 136 | 12.9 | 22.5 | 0.00 | 0.00 | 0.00 | 61 | 1013.3 |
| 20260508151034 | 19 | 126 | 9.7 | 14.5 | 0.00 | 0.00 | 0.00 | 59 | 1013.4 |
| 20260508150531 | 19 | 219 | 11.3 | 14.5 | 0.00 | 0.00 | 0.00 | 60 | 1013.3 |
| 20260508150027 | 19 | 199 | 9.7 | 11.3 | 0.00 | 0.00 | 0.00 | 60 | 1013.4 |
| 20260508145524 | 18 | 223 | 11.3 | 16.1 | 0.00 | 0.00 | 0.00 | 60 | 1013.5 |
| 20260508145020 | 18 | 210 | 12.9 | 16.1 | 0.00 | 0.00 | 0.00 | 61 | 1013.3 |
| 20260508144518 | 18 | 236 | 4.8 | 9.7 | 0.00 | 0.00 | 0.00 | 63 | 1013.3 |
| 20260508144015 | 18 | 208 | 8.0 | 11.3 | 0.00 | 0.00 | 0.00 | 63 | 1013.3 |
| 20260508143513 | 18 | 215 | 6.4 | 11.3 | 0.00 | 0.00 | 0.00 | 64 | 1013.3 |
| 20260508143009 | 18 | 142 | 11.3 | 17.7 | 0.00 | 0.00 | 0.00 | 63 | 1013.3 |
| 20260508142506 | 18 | 195 | 6.4 | 6.4 | 0.00 | 0.00 | 0.00 | 64 | 1013.5 |
| 20260508142003 | 17 | 2 | 6.4 | 11.3 | 0.00 | 0.00 | 0.00 | 65 | 1013.7 |